This is the latest recevied weather packets stored in our database for station/object PY2UEP-1. If no packets are shown the sender has not sent any weather packets the latest 10 day(s).
| Time | Temp. | Humidity | Pressure | Rain* | Wind** | Luminosity | Snow |
|---|---|---|---|---|---|---|---|
| 1787421061 | 25.56° C | 33% | 1019.8 hPa | 0 mm | - | - | - |
| 1787420761 | 25° C | 34% | 1019.8 hPa | 0 mm | - | - | - |
| 1787420461 | 25° C | 35% | 1019.9 hPa | 0 mm | - | - | - |
| 1787420161 | 24.44° C | 34% | 1020.1 hPa | 0 mm | - | - | - |
| 1787419862 | 24.44° C | 35% | 1020.1 hPa | 0 mm | - | - | - |
| 1787419561 | 25° C | 35% | 1020.1 hPa | 0 mm | - | - | - |
| 1787419261 | 24.44° C | 35% | 1020.2 hPa | 0 mm | - | - | - |
| 1787418961 | 24.44° C | 34% | 1020.2 hPa | 0 mm | - | - | - |
| 1787418661 | 24.44° C | 33% | 1020.3 hPa | 0 mm | - | - | - |
| 1787418361 | 23.89° C | 34% | 1020.3 hPa | 0 mm | - | - | - |
| 1787418061 | 23.89° C | 34% | 1020.3 hPa | 0 mm | - | - | - |
| 1787417761 | 24.44° C | 34% | 1020.4 hPa | 0 mm | - | - | - |
| 1787417461 | 24.44° C | 37% | 1020.5 hPa | 0 mm | - | - | - |
| 1787417161 | 23.33° C | 39% | 1020.5 hPa | 0 mm | - | - | - |
| 1787416861 | 23.89° C | 39% | 1020.6 hPa | 0 mm | - | - | - |
| 1787416561 | 23.33° C | 39% | 1020.6 hPa | 0 mm | - | - | - |
| 1787416261 | 23.33° C | 38% | 1020.7 hPa | 0 mm | - | - | - |
| 1787415961 | 23.89° C | 39% | 1020.7 hPa | 0 mm | - | - | - |
| 1787415661 | 23.33° C | 39% | 1020.9 hPa | 0 mm | - | - | - |
| 1787415361 | 23.33° C | 40% | 1021 hPa | 0 mm | - | - | - |
| 1787415061 | 22.78° C | 42% | 1021 hPa | 0 mm | - | - | - |
| 1787414761 | 23.33° C | 40% | 1021 hPa | 0 mm | - | - | - |
| 1787414461 | 23.33° C | 40% | 1021.1 hPa | 0 mm | - | - | - |
| 1787414161 | 23.33° C | 41% | 1021.2 hPa | 0 mm | - | - | - |
| 1787413861 | 23.33° C | 41% | 1021.3 hPa | 0 mm | - | - | - |
* Rain since midnight (hover to see other rain measurements)
** Current wind speed in m/s (hover to see current wind gust speed)